Погода в Милтоне

Канада     43°30′59″N   79°52′12″W
темп.,
°C
ветер,
м/с
пор.,
м/с
влажн.,
%
обл.,
%
осадки,
мм/ч
давл.,
гПа
погр.,
м
10 апреля, сб
сб1023:00+11в23875 0.0 101174
02:00+12ююв018797 0.0 101211
05:00+9ююв259625 0.1 1011121
08:00+9ююв1493100 0.1 1011133
11:00+14ююв3570100 0.0 1010311
14:00+17вюв3457100 0.0 1009392
17:00+17вюв4556100 0.0 1006305
20:00+14в3764100 0.0 1004186
11 апреля, вс
вс1123:00+14вюв1170100 0.0 100215
02:00+13вюв2880100 0.0 1000238
05:00+11в3788100 0.4 998204
08:00+12юв41098100 4.0 998386
11:00+13ююв139383 1.5 999222
14:00+18ю47480 1.6 9981405
17:00+18ююв36479 0.0 9981210
20:00+12вюв3577100 0.1 1000263
12 апреля, пн
пн1223:00+12св1295100 5.8 999154
02:00+11ююв1297100 14.3 998216
05:00+10ю3691100 2.8 1000392
08:00+10ююв2490100 3.3 1001309
11:00+12ю357395 0.8 1002961
14:00+13ююв466881 1.4 10031067
17:00+13ююв4767100 1.1 1003987
20:00+11ю3778100 2.2 1004506
13 апреля, вт
вт1323:00+10ююв3685100 0.2 1005304
02:00+9ю388566 0.2 1006404
05:00+8ююв138837 0.0 1006101
08:00+8ю2489100 0.1 1007284
11:00+9юз3586100 0.3 1008490
14:00+9зюз3585100 0.9 1009496
17:00+9з2583100 0.3 1010486
20:00+8з1488100 0.7 1012343
14 апреля, ср
ср1423:00+7всв1292100 0.6 1013240
02:00+7всв2490100 0.8 1014413
05:00+7ссв2691100 0.3 1015507
08:00+6св3793100 0.7 1017911
11:00+7св3688100 0.3 1019888
14:00+9в3574100 0.5 1020871
17:00+9св2370100 0.0 1020633
20:00+8св017668 0.0 102023